Kimball, NE

4:28 AM MDT on May 25, 2017 (GMT -0600)
Kimball Municipal-Arraj

Weather History for KIBM - February, 2012

Change the Weather History Date:

Tuesday, February 21, 2012

  Actual Average (KSNY) Record (KSNY)
Temperature  
Mean Temperature 30 °F -  
Max Temperature 44 °F 45 °F 73 °F (2017)
Min Temperature 19 °F 18 °F -6 °F (1953)
Degree Days  
Heating Degree Days 34    
Moisture  
Dew Point 21 °F    
Average Humidity 59    
Maximum Humidity 74    
Minimum Humidity 45    
Precipitation  
Precipitation 0.00 in - - ()
Sea Level Pressure  
Sea Level Pressure 29.75 in    
Wind  
Wind Speed 14 mph (West)    
Max Wind Speed 30 mph    
Max Gust Speed 43 mph    
Visibility 10 miles    
Events      
Averages and records for this station are not official NWS values.
T = Trace of Precipitation, MM = Missing Value Source: NWS Daily Summary

Daily Weather History Graph

Daily Weather History Graph

Search for Another Location

Airport or City:

Trip Planner

Search our weather history database for the weather conditions in past years. The results will help you decide how hot, cold, wet, or windy it might be!

Date:

Astronomy

Feb. 21, 2012 Rise Set
Actual Time 7:41 AM CST 6:35 PM CST
Civil Twilight 7:13 AM CST 7:03 PM CST
Nautical Twilight 6:41 AM CST 7:35 PM CST
Astronomical Twilight 6:09 AM CST 8:07 PM CST
Moon 7:11 AM CST (2/21) 6:45 PM CST (2/21)
Length of Visible Light 11h 49m
Length of Day
10h 53m
Waning Crescent, 0% of the Moon is Illuminated
Feb 21
Waning Crescent
Feb 21
New
Feb 29
First Quarter
Mar 8
Full
Mar 14
Last Quarter

Hourly Weather History & Observations

Time (CST) Temp. Windchill Dew Point Humidity Pressure Visibility Wind Dir Wind Speed Gust Speed Precip Events Conditions
1:36 AM 24.8 °F 16.1 °F 15.8 °F 69% 29.84 in 10.0 mi West 8.1 mph - N/A   Clear
1:56 AM 24.8 °F 15.3 °F 15.8 °F 69% 29.84 in 10.0 mi West 9.2 mph - N/A   Clear
2:36 AM 24.8 °F 15.3 °F 15.8 °F 69% 29.83 in 10.0 mi West 9.2 mph - N/A   Scattered Clouds
4:16 AM 26.6 °F 16.8 °F 17.6 °F 69% 29.82 in 10.0 mi WNW 10.4 mph - N/A   Overcast
4:36 AM 26.6 °F 16.8 °F 15.8 °F 64% 29.82 in 10.0 mi WNW 10.4 mph - N/A   Mostly Cloudy
4:56 AM 24.8 °F 15.3 °F 17.6 °F 74% 29.82 in 10.0 mi WNW 9.2 mph - N/A   Scattered Clouds
5:16 AM 24.8 °F 15.3 °F 17.6 °F 74% 29.82 in 10.0 mi WNW 9.2 mph - N/A   Clear
7:16 AM 19.4 °F 10.4 °F 12.2 °F 74% 29.81 in 10.0 mi West 6.9 mph - N/A   Clear
7:36 AM 19.4 °F 8.6 °F 12.2 °F 74% 29.81 in 10.0 mi West 9.2 mph - N/A   Clear
8:16 AM 19.4 °F 9.5 °F 12.2 °F 74% 29.81 in 10.0 mi West 8.1 mph - N/A   Clear
8:39 AM 24.8 °F 16.9 °F 15.8 °F 69% 29.81 in 10.0 mi West 6.9 mph - N/A   Clear
8:58 AM 28.4 °F 19.7 °F 17.6 °F 64% 29.82 in 10.0 mi West 9.2 mph - N/A   Clear
10:15 AM 35.6 °F 24.8 °F 17.6 °F 48% 29.81 in 10.0 mi West 19.6 mph 24.2 mph N/A   Clear
10:36 AM 35.6 °F 24.8 °F 19.4 °F 52% 29.81 in 10.0 mi West 19.6 mph 24.2 mph N/A   Clear
11:36 AM 39.2 °F 28.0 °F 19.4 °F 45% 29.79 in 10.0 mi West 26.5 mph 34.5 mph N/A   Mostly Cloudy
5:15 PM 41.0 °F 32.2 °F 24.8 °F 53% 29.72 in 10.0 mi WNW 18.4 mph - N/A   Clear
5:35 PM 42.6 °F 32.8 °F 23.4 °F 47% 29.71 in 10.0 mi West 25.3 mph - N/A   Clear
5:55 PM 41.2 °F 30.1 °F 22.5 °F 47% 29.71 in 10.0 mi West 29.9 mph 42.6 mph N/A   Clear
6:15 PM 41.2 °F 30.7 °F 23.2 °F 49% 29.71 in 10.0 mi West 26.5 mph 34.5 mph N/A   Mostly Cloudy
7:15 PM 37.9 °F 28.5 °F 23.5 °F 56% 29.70 in 10.0 mi West 17.3 mph 23.0 mph N/A   Scattered Clouds
7:35 PM 37.6 °F 28.4 °F 23.4 °F 57% 29.70 in 10.0 mi West 16.1 mph 23.0 mph N/A   Clear
7:55 PM 36.9 °F 26.5 °F 23.9 °F 59% 29.70 in 10.0 mi West 19.6 mph 24.2 mph N/A   Clear
8:15 PM 38.3 °F 27.8 °F 23.9 °F 56% 29.71 in 10.0 mi West 21.9 mph 28.8 mph N/A   Clear
8:35 PM 38.7 °F 27.8 °F 24.1 °F 56% 29.70 in 10.0 mi West 24.2 mph 29.9 mph N/A   Clear
8:55 PM 39.2 °F 28.7 °F 23.9 °F 54% 29.70 in 10.0 mi West 23.0 mph 29.9 mph N/A   Clear
9:15 PM 39.6 °F 29.2 °F 23.9 °F 54% 29.70 in 10.0 mi West 23.0 mph 31.1 mph N/A   Clear
9:35 PM 40.1 °F 30.5 °F 23.7 °F 52% 29.70 in 10.0 mi West 20.7 mph 31.1 mph N/A   Clear
9:55 PM 40.1 °F 30.2 °F 23.9 °F 52% 29.70 in 10.0 mi West 21.9 mph 28.8 mph N/A   Clear
10:15 PM 40.1 °F 29.7 °F 24.3 °F 53% 29.70 in 10.0 mi West 24.2 mph 32.2 mph N/A   Clear
10:35 PM 40.1 °F 29.9 °F 24.8 °F 54% 29.71 in 10.0 mi WNW 23.0 mph - N/A   Clear
10:55 PM 39.9 °F 30.2 °F 25.3 °F 56% 29.70 in 10.0 mi WNW 20.7 mph - N/A   Clear
11:15 PM 39.6 °F 30.0 °F 25.7 °F 58% 29.69 in 10.0 mi WNW 19.6 mph 26.5 mph N/A   Clear
11:35 PM 39.2 °F 29.6 °F 26.4 °F 60% 29.69 in 10.0 mi WNW 19.6 mph 23.0 mph N/A   Clear
11:55 PM 39.4 °F 29.5 °F 26.6 °F 60% 29.68 in 10.0 mi WNW 20.7 mph 26.5 mph N/A   Clear